Showing default

QIANFAN-49, 62250

Orbit data source: Space-Track

QIANFAN-49, 62250 is a Chinese payload satellite in LEO that was launched on Thu, 05 Dec 2024 UTC via a CHANG ZHENG 6A launch vehicle from the Taiyaun Space Center, China (TSC). Payload-class satellites include a variety of spacecraft equipped with specific instruments for various scientific and technological missions. These include communications satellites like Starlink; space stations such as the ISS; scientific satellites like the Hubble; Earth observation satellites from companies like Planet Labs, Umbra, and HawkEye 360; GPS; miniature CubeSats for education and research; and military/defense satellites.

Loading next visibility...
Identifier
62250, 2024-232P
Orbit
LEO
Country
Flag of CNCN / PRC
Related business
Manufacturer
SECM
Mission
Operational Commercial Communications
Bus & Motor
QIANFAN, Unknown motor
Mass
267 kg wet, ~267 kg dry
Launch date (UTC)
2024-12-05 (9 months ago)
Launch vehicle
CHANG ZHENG 6A
Launch site
Taiyaun Space Center, China (TSC)
Object type
Payload
Rocket body
Debris
Shape & HBR
Box + 1 Pan, 5.0 m
Radar Cross Section
13.200 m², Large (>1 m²)

Expand to show TLE details & history
Last TLE update: 12 hours ago

TLE from 12 hours ago
0 QIANFAN-49
1 62250U 24232P   25259.51815923  .00000091  00000-0  12229-3 0  9994
2 62250  88.9972  50.0272 0016076  88.3491 271.9501 13.50960043 56062
Epoch: 2025-09-16T12:26Z
TLE epoch observation values (Epoch: 2025-09-16T12:26:08.957Z)
Latitude
-0.00006°
Longitude
-132.21743°
Altitude
1,071.293 km
Speed
7.317 km/s
True Right ascension
03h 20m 06s
True Declination
0° 00' 00"
Sunlit
Object was in full shadow at epoch
Visualization orbit readout
Latitude
Unknown
Longitude
Unknown
Altitude
Unknown
Speed
Unknown
Apparent Right ascension
Unknown
Apparent Declination
Unknown
Sunlit
N/A
Visualization observer readout
Local Sidereal Time
17:28:32
Azimuth
Unknown
Elevation
Unknown
Doppler factor
Unknown
Orbital elements
Apogee altitude
1,077.746 km
Perigee altitude
1,053.813 km
Semi-major axis
7,443.917 km
Eccentricity
0.00161
Inclination
88.9972°
RAAN
50.0272°
Arg. of periapsis
88.3491°
True anomaly
271.76598°
Mean anomaly
271.9501°
Eccentric anomaly
271.85804°
Mean motion
3.37941 °/min
Orbital period
106.53 mins
BSTAR
0.00012229
Loading maneuver chart data...
Computing Atmospheric mass density...
Loading historical data...
Loading historical data...
Loading historical data...
Loading historical data...
Loading historical data...
Loading historical data...
Loading historical data...

Documentation

Showing up to 5 results
|